Location: Starhoo Observatory
(41.8578°N, 70.9669°W)
Time: 18:24:58
(UTC-04:00)

ISS - Visible Passes

Search period start: 27 March 2017 00:00
Search period end: 06 April 2017 00:00
Orbit: 399 x 409 km, 51.6° (Epoch: 28 March)

Date Brightness Start Highest point End Pass type
(mag) Time Alt. Az. Time Alt. Az. Time Alt. Az.
27 Mar -3.7 20:25:34 10° SW 20:28:45 53° SE 20:29:21 44° E visible
28 Mar -2.8 19:33:43 10° SSW 19:36:31 27° SE 19:39:21 10° ENE visible
28 Mar -2.5 21:09:49 10° W 21:12:44 38° NW 21:12:44 38° NW visible
29 Mar -3.5 20:17:14 10° WSW 20:20:28 65° NNW 20:23:10 14° NE visible
29 Mar -0.5 21:55:02 10° WNW 21:55:50 14° NW 21:55:50 14° NW visible
30 Mar -1.6 21:02:07 10° WNW 21:04:49 23° NNW 21:06:03 19° NNE visible
31 Mar -2.2 20:09:17 10° W 20:12:16 33° NNW 20:15:17 10° NE visible
31 Mar -0.8 21:47:26 10° NW 21:48:44 14° NNW 21:48:44 14° NNW visible
01 Apr -1.2 20:54:31 10° NW 20:56:48 17° NNW 20:58:37 12° NNE visible
02 Apr -1.5 20:01:34 10° WNW 20:04:08 21° NNW 20:06:45 10° NE visible
02 Apr -1.0 21:39:32 10° NW 21:41:04 15° N 21:41:04 15° N visible
03 Apr -1.1 20:46:48 10° NW 20:48:47 15° N 20:50:46 10° NE visible
04 Apr -1.2 19:53:53 10° NW 19:56:04 16° N 19:58:15 10° NNE visible
04 Apr -1.2 21:31:13 10° NNW 21:33:03 17° N 21:33:03 17° N visible
05 Apr -1.2 20:38:44 10° NNW 20:40:45 15° N 20:42:40 10° NE visible
05 Apr -0.4 22:14:58 10° NW 22:15:19 12° NW 22:15:19 12° NW visible
